Theta_e
337 342 349 351 352 352 352 351 352 350 351 348 345 344 343 342 342 341 339 338 337 340 342 344 344 344 343 345 345 344 344 342 343 343 344 344 344 345 345 346 346 344 348
340 345 348 350 354 352 352 352 351 350 351 348 346 345 343 342 341 340 338 337 336 338 340 341 342 343 343 343 344 343 342 341 340 340 339 340 342 341 341 342 345 344 347
343 347 348 350 351 353 352 352 351 349 349 348 346 344 342 341 340 339 337 335 335 336 338 339 340 340 342 342 342 342 342 340 338 338 337 330 333 338 339 339 338 341 343
346 347 347 347 351 351 351 352 351 350 349 348 345 342 342 340 339 337 335 334 334 334 336 337 338 338 339 340 338 340 340 339 337 335 329 328 330 338 338 337 337 338 339
343 345 345 347 351 351 351 351 350 350 348 347 345 342 341 339 338 335 333 332 332 332 334 335 337 338 337 335 340 342 339 338 335 333 330 330 326 334 336 335 333 335 336
343 345 343 347 351 351 350 350 350 349 348 347 345 342 340 338 336 334 331 329 329 330 331 333 335 335 332 334 340 338 337 333 329 326 327 330 327 335 335 333 332 333 335
340 343 343 345 348 349 349 349 349 349 348 346 344 342 339 337 334 332 330 327 326 327 328 328 329 329 328 331 334 333 331 328 322 321 322 325 327 333 334 333 333 331 331
339 343 343 338 340 344 347 347 347 347 347 346 344 341 339 337 334 332 329 325 323 323 322 322 324 325 324 324 326 323 320 318 314 314 315 320 332 332 332 331 331 331 331
334 342 343 342 339 337 340 341 343 344 344 344 344 342 339 337 334 332 331 325 323 321 321 321 321 321 320 320 319 317 313 312 304 309 313 316 330 331 331 331 330 330 329
314 319 332 340 340 338 338 335 336 339 340 340 340 336 333 333 332 331 329 329 327 326 323 321 319 319 319 317 315 312 309 307 300 303 307 316 325 327 330 330 329 329 329
310 312 314 320 327 333 339 335 332 333 335 335 333 329 327 329 326 325 327 329 329 327 325 323 321 319 316 316 313 310 305 297 299 302 306 320 322 324 325 325 328 330 331
308 310 310 313 315 320 334 338 336 334 336 336 333 330 329 328 327 326 322 324 324 325 324 323 320 316 310 304 303 306 299 298 298 300 309 320 321 323 324 324 324 325 326
304 308 311 311 313 315 321 335 332 335 334 333 330 329 328 325 325 323 321 320 314 314 313 313 311 309 307 306 305 303 302 301 300 303 313 320 321 323 322 322 322 322 322
304 305 308 310 311 312 321 329 332 334 335 332 330 329 326 323 322 321 319 318 316 315 311 310 309 309 308 308 307 305 304 303 302 305 310 316 319 322 323 323 323 323 323
302 302 306 308 311 313 325 323 323 323 326 329 330 328 327 323 321 319 315 312 312 312 310 308 308 307 305 303 305 305 302 300 299 301 299 308 314 314 315 315 319 320 321
302 303 305 308 313 320 319 318 316 317 317 319 319 327 326 324 318 314 313 312 310 311 308 304 303 303 301 302 303 300 298 298 297 295 293 293 306 308 309 309 311 316 317
301 302 304 307 313 313 312 312 312 312 312 313 313 316 320 318 315 312 309 305 307 306 303 299 299 301 300 301 299 298 297 295 292 292 291 289 289 300 302 303 306 309 312
300 301 302 306 307 307 307 308 308 308 308 309 310 312 313 312 311 308 306 304 304 301 296 295 297 296 296 296 296 295 294 292 289 288 288 288 287 287 292 299 300 304 308
299 299 298 299 303 303 303 303 302 303 304 305 307 307 308 305 305 302 300 298 297 294 292 292 292 292 295 294 295 294 292 290 288 287 286 286 286 286 286 292 294 297 301
298 297 297 301 301 301 299 298 297 296 296 297 298 300 301 299 299 297 294 294 293 290 290 289 288 287 289 290 292 289 287 286 286 284 283 285 285 284 285 285 285 287 295
295 295 295 299 299 298 297 297 296 293 294 293 294 294 294 294 293 292 290 289 288 288 286 285 285 287 284 285 290 288 287 286 283 283 282 282 283 284 283 284 284 285 286
297 296 294 299 298 298 299 294 293 293 292 292 292 291 291 291 290 288 286 285 284 284 283 283 283 282 282 281 286 285 283 285 283 283 281 282 280 282 282 283 283 284 284
296 297 297 298 299 298 294 292 290 291 290 289 289 288 289 289 288 287 285 284 283 283 282 281 281 281 279 280 280 281 277 276 278 281 279 279 279 279 279 280 282 283 283
296 299 299 299 299 294 293 292 292 292 288 288 287 287 287 287 286 286 284 283 282 282 282 281 281 280 280 279 280 281 278 277 275 275 277 278 279 279 278 279 279 281 282
295 298 299 299 294 293 293 293 292 290 287 286 286 285 285 285 284 283 283 282 282 282 281 281 280 280 279 279 279 278 278 277 277 275 273 274 277 278 278 278 278 279 280
295 298 297 294 293 293 292 291 290 287 285 284 284 283 283 283 282 282 282 281 281 281 280 280 280 280 280 280 280 279 278 276 276 274 274 274 274 276 277 278 278 278 278
Wind_Speed
4 5 9 10 12 12 13 13 14 14 16 16 16 17 16 16 16 15 15 16 15 15 15 15 15 16 16 17 17 16 14 18 18 20 20 21 20 21 21 21 15 11 16
8 6 9 11 11 12 13 12 12 13 16 17 16 16 14 15 16 14 15 15 15 16 14 14 14 16 16 16 16 17 18 18 18 17 17 15 18 19 20 19 19 16 19
7 7 7 11 12 13 12 11 11 11 15 17 16 15 14 15 14 14 14 14 15 14 14 14 14 14 15 16 16 15 16 17 17 14 14 7 11 18 19 19 18 19 19
8 6 6 9 11 12 12 11 10 10 13 15 15 14 14 14 14 14 14 15 14 14 14 13 14 14 15 15 14 12 16 19 16 13 6 6 8 18 19 18 18 18 18
6 6 6 9 10 11 10 10 10 11 12 14 14 13 14 14 14 14 14 14 14 14 14 14 15 15 15 16 15 17 18 18 15 11 8 7 6 15 18 18 16 16 16
8 7 8 9 10 10 10 10 11 11 13 13 15 14 14 14 13 13 13 13 14 15 15 16 16 16 16 17 18 19 17 16 12 9 9 9 6 16 17 18 17 17 16
8 7 7 10 9 8 10 10 10 11 13 13 15 15 14 14 13 13 13 13 14 15 16 16 15 16 18 19 19 18 17 16 9 9 8 8 8 17 17 18 17 18 18
9 9 7 9 9 9 8 10 10 11 12 13 15 14 13 13 13 13 13 13 14 15 16 16 16 17 18 18 19 19 19 17 11 9 9 7 14 17 16 17 17 18 18
6 5 6 5 8 9 7 8 9 10 11 12 14 13 12 12 12 12 12 14 15 15 15 15 16 17 18 19 19 19 20 19 10 7 8 6 15 17 17 17 17 18 18
7 7 5 4 3 6 6 8 8 10 11 12 12 12 11 11 10 9 9 11 14 13 14 15 16 18 18 19 19 19 18 17 9 7 6 7 16 17 18 16 16 16 17
5 6 6 5 4 2 5 5 7 10 11 11 11 11 9 7 7 6 7 10 13 14 15 15 16 16 16 17 17 17 14 5 6 5 4 15 17 18 18 18 18 17 17
3 4 5 4 4 3 2 5 5 5 5 5 7 8 4 6 6 4 8 11 12 13 14 15 15 14 10 5 5 10 5 6 6 5 5 16 18 19 19 19 20 20 21
3 2 2 3 3 3 2 1 3 4 4 4 7 6 5 5 4 4 3 3 4 7 4 6 6 5 6 5 5 5 6 7 5 6 12 20 20 19 20 20 20 20 20
4 2 1 2 2 2 2 1 1 5 5 5 6 8 6 4 4 4 3 3 3 3 5 5 3 5 6 6 6 7 8 7 5 6 12 21 22 22 24 23 22 21 21
4 2 1 2 1 2 2 2 2 3 4 5 7 7 6 5 6 4 4 4 4 3 4 5 5 4 5 6 6 9 9 9 10 6 7 23 23 25 26 27 24 24 23
5 4 1 1 1 3 3 3 3 3 4 4 4 7 8 6 7 5 5 4 4 3 3 4 4 5 5 5 10 9 9 10 10 10 7 9 23 24 25 26 25 24 25
4 4 3 3 3 3 3 4 3 3 4 4 4 6 8 8 7 6 5 4 4 4 6 5 5 6 7 7 10 8 9 10 10 10 9 8 9 20 25 26 25 24 23
5 6 4 3 4 5 4 4 4 5 4 4 4 6 8 8 9 6 6 4 4 4 4 5 5 6 6 7 6 6 7 9 9 10 10 8 7 7 14 24 24 25 24
7 6 5 4 6 6 6 6 6 7 5 4 5 6 7 9 6 7 6 4 5 5 5 4 5 4 7 6 8 6 6 6 7 7 10 10 10 9 7 17 21 23 24
6 6 6 4 7 7 6 6 6 6 5 5 5 6 8 7 8 8 6 6 5 6 6 5 6 6 5 5 8 7 5 4 5 6 7 8 8 9 9 11 9 11 24
6 6 6 8 8 7 6 5 4 4 4 5 5 7 7 8 8 9 6 6 5 6 5 5 4 8 6 4 4 3 4 5 6 5 4 7 8 8 10 9 7 7 9
9 8 7 8 9 7 5 4 3 5 4 5 5 7 7 7 8 8 8 6 5 6 6 5 4 4 4 4 3 3 1 2 3 5 5 6 7 6 9 9 9 9 8
11 11 11 10 10 7 8 8 7 7 6 4 5 5 6 7 9 9 8 7 6 5 6 5 5 7 5 5 7 4 3 1 1 2 4 4 7 5 5 6 7 8 9
11 10 11 11 11 9 11 10 13 8 8 4 4 5 6 7 9 8 9 7 6 5 7 5 4 4 4 5 4 7 8 3 2 3 3 5 5 6 5 4 5 7 8
11 11 11 12 10 11 10 10 8 9 8 7 7 9 8 7 8 7 7 7 8 7 6 8 7 7 4 4 3 3 4 4 5 3 2 4 3 3 3 3 4 4 8
11 13 12 13 11 12 11 9 10 13 14 11 10 9 6 6 6 6 7 7 7 7 7 7 7 8 7 7 6 6 3 3 2 4 2 3 3 4 3 4 4 4 5
Wind_Direction
196 182 141 130 132 126 126 125 125 116 105 95 88 84 79 77 71 70 69 65 66 62 60 55 61 65 61 56 52 49 57 61 57 56 54 52 51 47 41 33 39 48 47
137 156 139 130 126 129 126 128 121 115 109 99 94 91 86 80 75 69 64 61 63 64 66 61 66 68 56 51 50 57 83 72 62 54 46 47 49 49 46 36 29 36 45
140 140 137 130 127 129 126 122 118 116 113 111 101 93 84 82 81 77 76 72 68 67 66 68 65 65 55 49 50 64 90 79 70 57 52 37 48 50 48 44 39 31 32
137 133 136 134 132 132 129 128 126 122 115 109 101 92 87 83 79 78 74 71 70 72 73 70 68 60 58 49 42 66 86 81 70 57 45 39 44 48 47 43 41 37 29
135 136 143 141 136 134 132 126 123 126 119 118 107 97 88 82 74 72 71 72 71 71 72 69 67 63 61 48 59 91 81 72 58 51 32 29 29 44 45 43 40 38 34
147 143 152 151 146 139 133 127 128 133 130 127 114 107 101 95 91 85 77 73 71 69 68 65 63 64 59 56 67 74 76 70 58 46 40 25 35 45 46 40 41 41 37
150 151 156 158 152 146 137 129 132 136 136 130 117 114 106 101 94 87 83 80 79 75 73 70 67 64 62 58 65 66 68 63 55 44 33 20 35 43 42 41 43 38 37
156 157 160 163 148 149 144 135 131 133 132 132 125 120 114 108 100 94 87 85 81 77 75 72 70 68 65 64 64 62 58 55 48 40 27 18 33 43 42 43 42 39 40
43 114 141 153 147 145 147 144 145 139 137 135 133 125 117 110 106 99 91 85 79 75 74 72 69 67 64 63 61 60 56 53 48 37 26 9 29 43 43 41 41 40 38
47 58 41 71 127 144 159 162 155 150 143 137 136 126 118 107 99 94 79 86 86 82 79 73 70 67 66 65 64 63 59 53 46 34 17 20 41 40 36 40 39 39 37
46 58 38 56 60 60 200 171 160 154 147 143 127 123 127 127 118 105 93 83 80 74 72 73 74 74 71 69 70 70 67 53 51 36 11 34 43 43 42 37 30 34 32
104 59 45 27 22 11 9 176 162 147 150 144 135 138 126 122 120 99 95 76 68 63 68 70 72 70 66 60 59 65 63 58 51 36 25 43 48 47 45 42 39 31 24
132 84 38 3 3 347 357 28 144 151 147 134 134 127 121 114 111 101 89 85 68 72 64 53 45 42 57 60 54 57 59 58 52 40 33 44 47 49 48 44 42 39 36
168 163 39 357 338 317 283 91 117 162 167 149 147 141 130 112 102 104 86 90 93 97 97 82 70 66 56 60 70 68 64 65 60 52 41 43 48 50 46 39 39 38 40
186 199 337 356 359 229 127 108 97 108 132 139 145 143 139 132 116 113 98 87 86 62 86 90 80 68 65 63 62 72 68 65 64 61 53 48 49 55 48 41 39 38 35
184 196 193 172 200 192 110 105 97 97 98 100 100 152 144 137 126 122 112 92 78 84 82 84 79 70 59 60 73 72 76 74 70 64 53 46 55 54 48 41 37 37 36
193 177 177 153 157 114 95 91 84 82 88 98 100 91 122 125 122 122 100 96 83 73 78 73 67 72 77 74 75 74 74 68 63 60 55 44 36 42 44 37 35 33 33
167 179 167 152 120 92 78 75 74 58 69 81 89 94 102 104 115 107 107 98 90 81 80 83 82 84 77 77 78 62 73 74 69 64 56 44 41 38 28 38 38 35 31
179 166 162 150 129 112 99 88 72 70 61 68 80 94 99 101 90 113 107 96 85 85 72 89 64 76 90 81 85 72 65 63 58 63 57 43 37 35 27 28 33 33 31
172 163 154 145 133 123 107 96 84 77 69 66 70 90 106 101 123 103 94 87 88 91 82 80 97 59 71 86 90 72 61 63 68 63 53 42 35 30 25 23 19 18 22
165 158 165 153 150 141 131 122 104 104 93 77 77 84 91 108 106 106 93 85 71 92 99 100 99 88 46 17 100 61 52 57 62 54 49 45 36 28 26 25 24 20 17
171 171 166 168 160 156 148 115 116 124 88 87 83 71 74 89 96 98 101 91 88 99 80 71 78 106 68 6 113 87 100 342 30 51 43 36 37 28 23 23 26 29 28
180 174 173 171 167 156 131 116 101 96 102 90 84 76 63 83 86 96 92 91 82 84 92 90 91 96 121 29 50 126 111 186 312 0 33 26 33 26 14 6 25 28 30
182 170 169 169 166 151 149 146 154 144 145 120 102 103 91 88 90 90 91 92 90 89 89 83 72 93 115 125 82 47 60 97 103 354 356 7 10 26 11 359 20 32 30
169 170 166 167 161 158 153 155 152 130 110 115 114 108 97 87 84 90 100 105 100 96 91 99 85 74 56 99 105 137 77 64 53 98 282 318 334 356 345 359 40 34 32
167 166 167 163 162 159 155 153 151 143 140 137 136 127 121 119 109 99 107 105 100 101 97 96 90 86 90 84 80 70 93 108 58 69 42 320 324 313 351 24 40 28 24